Time,TemperatureF,DewpointF,PressureIn,WindDirection,WindDirectionDegrees,WindSpeedMPH,WindSpeedGustMPH,Humidity,HourlyPrecipIn,Conditions,Clouds,dailyrainin,SoftwareType,DateUTC
2013-08-25 00:22:00,71.0,-99.9,-100.00,North,0,0.0,0.0,-999,0.00,,,-99.99,,2013-08-25 06:22:00,
2013-08-25 02:22:00,70.0,-99.9,-100.00,North,0,0.0,0.0,-999,0.00,,,-99.99,,2013-08-25 08:22:00,
2013-08-25 02:53:00,68.0,-99.9,-100.00,North,0,0.0,0.0,-999,0.00,,,-99.99,,2013-08-25 08:53:00,
2013-08-25 04:23:00,70.0,-99.9,-100.00,North,0,0.0,0.0,-999,0.00,,,-99.99,,2013-08-25 10:23:00,
2013-08-25 04:53:00,66.0,-99.9,-100.00,North,0,0.0,0.0,-999,0.00,,,-99.99,,2013-08-25 10:53:00,
2013-08-25 05:22:00,63.0,-99.9,-100.00,North,0,0.0,0.0,-999,0.00,,,-99.99,,2013-08-25 11:22:00,
2013-08-25 05:52:00,65.0,-99.9,-100.00,North,0,0.0,0.0,-999,0.00,,,-99.99,,2013-08-25 11:52:00,
2013-08-25 06:22:00,67.0,-99.9,-100.00,North,0,0.0,0.0,-999,0.00,,,-99.99,,2013-08-25 12:22:00,
2013-08-25 06:52:00,66.0,-99.9,-100.00,North,0,0.0,0.0,-999,0.00,,,-99.99,,2013-08-25 12:52:00,
2013-08-25 08:28:00,70.0,-99.9,-100.00,North,0,0.0,0.0,-999,0.00,,,-99.99,,2013-08-25 14:28:00,
2013-08-25 09:23:00,72.0,-99.9,-100.00,North,0,0.0,0.0,-999,0.00,,,-99.99,,2013-08-25 15:23:00,
2013-08-25 09:55:00,74.0,-99.9,-100.00,North,0,0.0,0.0,-999,0.00,,,-99.99,,2013-08-25 15:55:00,
2013-08-25 10:24:00,75.0,-99.9,-100.00,North,0,0.0,0.0,-999,0.00,,,-99.99,,2013-08-25 16:24:00,
2013-08-25 10:54:00,77.0,-99.9,-100.00,North,0,0.0,0.0,-999,0.00,,,-99.99,,2013-08-25 16:54:00,
2013-08-25 11:23:00,78.0,-99.9,-100.00,North,0,0.0,0.0,-999,0.00,,,-99.99,,2013-08-25 17:23:00,
2013-08-25 11:53:00,80.0,-99.9,-100.00,North,0,0.0,0.0,-999,0.00,,,-99.99,,2013-08-25 17:53:00,
2013-08-25 12:22:00,81.0,-99.9,-100.00,North,0,0.0,0.0,-999,0.00,,,-99.99,,2013-08-25 18:22:00,
2013-08-25 12:52:00,79.0,-99.9,-100.00,North,0,0.0,0.0,-999,0.00,,,-99.99,,2013-08-25 18:52:00,
2013-08-25 13:53:00,76.0,-99.9,-100.00,North,0,0.0,0.0,-999,0.00,,,-99.99,,2013-08-25 19:53:00,
2013-08-25 14:24:00,79.0,-99.9,-100.00,North,0,0.0,0.0,-999,0.00,,,-99.99,,2013-08-25 20:24:00,
2013-08-25 14:53:00,84.0,-99.9,-100.00,North,0,0.0,0.0,-999,0.00,,,-99.99,,2013-08-25 20:53:00,
2013-08-25 15:22:00,84.0,-99.9,-100.00,North,0,0.0,0.0,-999,0.00,,,-99.99,,2013-08-25 21:22:00,
2013-08-25 15:55:00,87.0,-99.9,-100.00,North,0,0.0,0.0,-999,0.00,,,-99.99,,2013-08-25 21:55:00,
2013-08-25 16:24:00,92.0,-99.9,-100.00,North,0,0.0,0.0,-999,0.00,,,-99.99,,2013-08-25 22:24:00,
2013-08-25 17:23:00,95.0,-99.9,-100.00,ESE,122,1.0,5.0,-999,0.00,,,-99.99,,2013-08-25 23:23:00,
2013-08-25 17:43:00,95.0,-99.9,-100.00,ESE,115,3.0,5.0,-999,0.00,,,-99.99,,2013-08-25 23:43:00,
2013-08-25 17:53:00,95.0,-99.9,-100.00,ESE,115,3.0,5.0,-999,0.00,,,-99.99,,2013-08-25 23:53:00,
2013-08-25 18:22:00,92.0,-99.9,-100.00,East,97,4.0,6.0,-999,0.00,,,-99.99,,2013-08-26 00:22:00,
2013-08-25 18:52:00,89.0,-99.9,-100.00,North,0,0.0,0.0,-999,0.00,,,-99.99,,2013-08-26 00:52:00,
2013-08-25 19:22:00,87.0,-99.9,-100.00,North,0,0.0,0.0,-999,0.00,,,-99.99,,2013-08-26 01:22:00,
2013-08-25 19:52:00,83.0,-99.9,-100.00,North,0,0.0,0.0,-999,0.00,,,-99.99,,2013-08-26 01:52:00,
2013-08-25 20:22:00,79.0,-99.9,-100.00,North,0,0.0,0.0,-999,0.00,,,-99.99,,2013-08-26 02:22:00,
2013-08-25 20:52:00,77.0,-99.9,-100.00,North,0,0.0,0.0,-999,0.00,,,-99.99,,2013-08-26 02:52:00,
2013-08-25 21:22:00,76.0,-99.9,-100.00,East,87,0.0,3.0,-999,0.00,,,-99.99,,2013-08-26 03:22:00,
2013-08-25 21:56:00,74.0,-99.9,-100.00,SE,141,1.0,3.0,-999,0.00,,,-99.99,,2013-08-26 03:56:00,
2013-08-25 22:14:00,74.0,-99.9,-100.00,North,0,0.0,0.0,-999,0.00,,,-99.99,,2013-08-26 04:14:00,
2013-08-25 22:24:00,74.0,-99.9,-100.00,North,0,0.0,0.0,-999,0.00,,,-99.99,,2013-08-26 04:24:00,
2013-08-25 22:34:00,74.0,-99.9,-100.00,North,0,0.0,0.0,-999,0.00,,,-99.99,,2013-08-26 04:34:00,
2013-08-25 23:23:00,72.0,-99.9,-100.00,SSE,159,2.0,3.0,-999,0.00,,,-99.99,,2013-08-26 05:23:00,
2013-08-25 23:53:00,73.0,-99.9,-100.00,South,170,2.0,5.0,-999,0.00,,,-99.99,,2013-08-26 05:53:00,